NOAA 16 DEB, 41424

Orbit data source: Space-Track

NOAA 16 DEB, 41424 is space debris in SSO originally from a launch on Thu, 21 Sep 2000 UTC launched from the Air Force Western Test Range (AFWTR). Debris objects in space refer to the collection of defunct objects orbiting the Earth. Examples of debris include non-operational satellites, rocket bodies, and fragments generated from explosions, collisions, or faulty payload assembly.

Loading next visibility...
Identifier
41424, 2000-055LD
Orbit
SSO
Country
Flag of USUS
Related business
Manufacturer
Unknown
Mission
Spacecraft
Bus & Motor
Unknown
Mass
Unknown
Launch date (UTC)
2000-09-21 (25 years ago)
Launch vehicle
Unknown
Launch site
Air Force Western Test Range (AFWTR)
Object type
Payload
Rocket body
Debris
Shape & HBR
Unknown
Radar Cross Section
Small (<0.1 m²)

Expand to show TLE details & history
Last TLE update: 2 days ago

TLE from 2 days ago
0 NOAA 16 DEB
1 41424U 00055LD  25259.20890671  .00006111  00000-0  20883-2 0  9993
2 41424  98.9452  39.9016 0024149 239.7277 120.1518 14.36538318495434
Epoch: 2025-09-16T05:00Z
TLE epoch observation values (Epoch: 2025-09-16T05:00:49.539Z)
Latitude
-0.00002°
Longitude
-30.70731°
Altitude
781.592 km
Speed
7.459 km/s
True Right ascension
02h 39m 36s
True Declination
0° 00' 00"
Sunlit
Object was in full shadow at epoch
Visualization orbit readout
Latitude
Unknown
Longitude
Unknown
Altitude
Unknown
Speed
Unknown
Apparent Right ascension
Unknown
Apparent Declination
Unknown
Sunlit
N/A
Visualization observer readout
Local Sidereal Time
00:49:07
Azimuth
Unknown
Elevation
Unknown
Doppler factor
Unknown
Orbital elements
Apogee altitude
784.362 km
Perigee altitude
749.852 km
Semi-major axis
7,145.244 km
Eccentricity
0.00241
Inclination
98.9452°
RAAN
39.9016°
Arg. of periapsis
239.7277°
True anomaly
120.39072°
Mean anomaly
120.1518°
Eccentric anomaly
120.2713°
Mean motion
3.5935 °/min
Orbital period
100.18 mins
BSTAR
0.0020883
Loading maneuver chart data...
Computing Atmospheric mass density...
Loading historical data...
Loading historical data...
Loading historical data...
Loading historical data...
Loading historical data...
Loading historical data...
Loading historical data...

Documentation

Showing up to 5 results
|